This demonstration page uses our WeatherBlox Daily Observations layout. Learn more.

Left ArrowRight Arrow

41.86663, -103.66717

Hourly Observations for June 10, 2023

Temp ( °F °C ) Dew Point ( °F °C ) Humidity (%) Winds ( mph kmh ) Pressure ( in mb ) Visibility ( mi km ) Precip ( " mm )
12:53 am 00:53 Mostly Clear 58 14.4 54 12.2 87 87 Calm 29.84 1011 10 16 0.00 0.00
1:53 am 01:53 Mostly Clear 56 13.3 53 11.7 90 90 NW 6 9 29.84 1010 10 16 0.00 0.00
2:53 am 02:53 Mostly Clear 55 12.8 53 11.7 93 93 NNW 7 11 29.83 1010 10 16 0.00 0.00
3:53 am 03:53 Mostly Clear 55 12.8 53 11.7 93 93 NW 5 7 29.83 1010 10 16 0.00 0.00
4:53 am 04:53 Mostly Cloudy 57 13.9 54 12.2 89 89 NW 5 7 29.88 1012 10 16 0.00 0.00
5:53 am 05:53 Sunny 57 13.9 54 12.2 89 89 W 6 9 29.88 1012 10 16 0.00 0.00
6:53 am 06:53 Sunny 57 13.9 54 12.2 89 89 W 5 7 29.86 1011 10 16 0.00 0.00
7:53 am 07:53 Sunny 58 14.4 54 12.2 87 87 WNW 5 7 29.88 1012 10 16 0.00 0.00
8:53 am 08:53 Sunny 64 17.8 57 13.9 78 78 W 8 13 29.88 1012 10 16 0.00 0.00
9:53 am 09:53 Sunny 67 19.4 57 13.9 71 71 WNW 8 13 29.88 1012 10 16 0.00 0.00
10:53 am 10:53 Mostly Sunny 71 21.7 58 14.4 63 63 NNW 12 19 29.87 1011 10 16 0.00 0.00
11:53 am 11:53 Partly Cloudy 73 22.8 59 15 61 61 NW 9 15 29.84 1011 10 16 0.00 0.00
12:53 pm 12:53 Partly Cloudy 75 23.9 58 14.4 55 55 NW 6 9 29.82 1010 10 16 0.00 0.00
1:53 pm 13:53 Mostly Cloudy 76 24.4 59 15 56 56 NNW 9 15 29.81 1009 10 16 0.00 0.00
2:53 pm 14:53 Mostly Sunny 75 23.9 56 13.3 51 51 NW 13 20 29.81 1010 10 16 0.00 0.00
3:53 pm 15:53 Mostly Sunny 76 24.4 56 13.3 50 50 NNW 16 26 29.81 1010 10 16 0.00 0.00
4:53 pm 16:53 Sunny 74 23.3 56 13.3 53 53 N 14 22 29.82 1010 10 16 0.00 0.00
5:53 pm 17:53 Sunny 72 22.2 53 11.7 51 51 N 18 30 29.83 1010 10 16 0.00 0.00
6:53 pm 18:53 Sunny 67 19.4 56 13.3 68 68 N 15 24 29.87 1012 10 16 0.00 0.00
7:53 pm 19:53 Mostly Sunny 65 18.3 56 13.3 73 73 NNE 10 17 29.89 1012 10 16 0.00 0.00
8:53 pm 20:53 Mostly Cloudy 62 16.7 55 12.8 78 78 N 10 17 29.91 1013 10 16 0.00 0.00
9:53 pm 21:53 Cloudy 62 16.7 57 13.9 84 84 N 6 9 29.93 1014 10 16 0.00 0.00
10:21 pm 22:21 Cloudy 61 16.1 57 13.9 87 87 N 8 13 29.91 1013 10 16 0.00 0.00
10:53 pm 22:53 Cloudy 61 16.1 57 13.9 87 87 NNE 7 11 29.93 1014 10 16 0.00 0.00
11:53 pm 23:53 Cloudy with Light Rain 60 15.6 57 13.9 90 90 N 7 11 29.94 1014 7 11 0.01 0.13

Powered by Vaisala Xweather